When you browse on this site, cookies collect data to enhance your experience and personalize the content and advertising you see.
Visit our Privacy Policy to learn more. By continuing to use the site, you agree to this use of cookies and data.
  • In Germany
  • List of Countries
  • For 7 days
  • Water Temperature
  • Weather Map
  • Weather Widgets
  • user-avatar
    Login

    Hourly Weather Berlin

    Today, 15 October, Tuesday

    Time Temperature Precipitation Wind Pressure Humidity
    00:00 +16°C° 0 mm 3 mps 755 mmHg 82%
    01:00 +16°C° 0 mm 2 mps 755 mmHg 84%
    02:00 +15°C° 0 mm 2 mps 754 mmHg 84%
    03:00 +15°C° 0 mm 2 mps 754 mmHg 85%
    04:00 +15°C° 0 mm 2 mps 753 mmHg 86%
    05:00 +14°C° 0 mm 2 mps 753 mmHg 87%
    06:00 +14°C° 0 mm 2 mps 753 mmHg 88%
    07:00 +14°C° 0 mm 2 mps 753 mmHg 86%
    08:00 +15°C° 0 mm 2 mps 753 mmHg 81%
    09:00 +17°C° 0 mm 3 mps 752 mmHg 77%
    10:00 +18°C° 0 mm 3 mps 752 mmHg 72%
    11:00 +19°C° 0 mm 3 mps 752 mmHg 68%
    12:00 +20°C° 0 mm 2 mps 751 mmHg 64%
    13:00 +23°C° 0 mm 2 mps 751 mmHg 62%
    14:00 +23°C° 0 mm 2 mps 751 mmHg 64%
    15:00 +22°C° 0 mm 1 mps 750 mmHg 66%
    16:00 +22°C° 0 mm 1 mps 750 mmHg 68%
    17:00 +21°C° 0 mm 1 mps 750 mmHg 73%
    18:00 +20°C° 0 mm 1 mps 750 mmHg 78%
    19:00 +18°C° 0 mm 1 mps 750 mmHg 84%
    20:00 +18°C° 0 mm 1 mps 750 mmHg 85%
    21:00 +16°C° 0 mm 1 mps 750 mmHg 87%
    22:00 +16°C° 0 mm 1 mps 749 mmHg 88%
    23:00 +15°C° 0 mm 1 mps 749 mmHg 89%

    Tomorrow, 16 October, Wednesday

    Time Temperature Precipitation Wind Pressure Humidity
    00:00 +15°C° 0 mm 1 mps 749 mmHg 90%
    01:00 +14°C° 0 mm 1 mps 749 mmHg 92%
    02:00 +14°C° 0 mm 2 mps 749 mmHg 92%
    03:00 +14°C° 0 mm 2 mps 749 mmHg 93%
    04:00 +13°C° 0 mm 3 mps 749 mmHg 94%
    05:00 +13°C° 0 mm 4 mps 750 mmHg 89%
    06:00 +14°C° 0 mm 5 mps 750 mmHg 84%
    07:00 +14°C° 0 mm 6 mps 751 mmHg 79%
    08:00 +14°C° 0.2 mm 6 mps 751 mmHg 80%
    09:00 +14°C° 0.2 mm 6 mps 752 mmHg 81%
    10:00 +13°C° 0.2 mm 6 mps 752 mmHg 81%
    11:00 +13°C° 0.6 mm 6 mps 753 mmHg 82%
    12:00 +13°C° 0.6 mm 6 mps 753 mmHg 82%
    13:00 +13°C° 0.6 mm 6 mps 753 mmHg 83%
    14:00 +13°C° 0.1 mm 5 mps 753 mmHg 79%
    15:00 +14°C° 0.1 mm 5 mps 754 mmHg 74%
    16:00 +14°C° 0.1 mm 4 mps 754 mmHg 70%
    17:00 +14°C° 0 mm 4 mps 754 mmHg 73%
    18:00 +13°C° 0 mm 4 mps 754 mmHg 76%
    19:00 +12°C° 0 mm 4 mps 754 mmHg 79%
    20:00 +12°C° 0 mm 4 mps 754 mmHg 81%
    21:00 +12°C° 0 mm 4 mps 755 mmHg 82%
    22:00 +12°C° 0 mm 3 mps 755 mmHg 84%
    23:00 +12°C° 0 mm 4 mps 755 mmHg 82%

    Day after tomorrow, 17 October, Thursday

    Time Temperature Precipitation Wind Pressure Humidity
    00:00 +13°C° 0 mm 4 mps 755 mmHg 80%
    01:00 +13°C° 0 mm 4 mps 756 mmHg 79%
    02:00 +13°C° 0 mm 3 mps 755 mmHg 78%
    03:00 +13°C° 0 mm 3 mps 755 mmHg 78%
    04:00 +13°C° 0 mm 3 mps 755 mmHg 78%
    05:00 +13°C° 0 mm 3 mps 755 mmHg 77%
    06:00 +13°C° 0 mm 3 mps 755 mmHg 75%
    07:00 +13°C° 0 mm 4 mps 755 mmHg 74%
    08:00 +13°C° 0 mm 4 mps 755 mmHg 72%
    09:00 +14°C° 0 mm 4 mps 756 mmHg 69%
    10:00 +14°C° 0 mm 4 mps 756 mmHg 67%
    11:00 +15°C° 0 mm 4 mps 756 mmHg 67%
    12:00 +15°C° 0 mm 4 mps 756 mmHg 67%
    13:00 +15°C° 0 mm 5 mps 756 mmHg 67%
    14:00 +15°C° 0 mm 4 mps 756 mmHg 68%
    15:00 +15°C° 0 mm 4 mps 756 mmHg 70%
    16:00 +15°C° 0 mm 4 mps 756 mmHg 72%
    17:00 +14°C° 0 mm 4 mps 757 mmHg 75%
    18:00 +13°C° 0 mm 3 mps 757 mmHg 79%
    19:00 +13°C° 0 mm 3 mps 757 mmHg 82%
    20:00 +13°C° 0 mm 3 mps 757 mmHg 84%
    21:00 +12°C° 0 mm 3 mps 757 mmHg 86%
    22:00 +13°C° 0 mm 2 mps 758 mmHg 88%
    23:00 +13°C° 0 mm 2 mps 758 mmHg 88%

    18 October, Friday

    Time Temperature Precipitation Wind Pressure Humidity
    00:00 +13°C° 0 mm 2 mps 757 mmHg 88%
    01:00 +13°C° 0 mm 2 mps 757 mmHg 87%
    02:00 +13°C° 0 mm 2 mps 757 mmHg 88%
    03:00 +13°C° 0 mm 2 mps 757 mmHg 90%
    04:00 +13°C° 0 mm 2 mps 757 mmHg 91%
    05:00 +13°C° 0 mm 2 mps 757 mmHg 92%
    06:00 +12°C° 0 mm 2 mps 757 mmHg 93%
    07:00 +12°C° 0 mm 2 mps 757 mmHg 93%
    08:00 +13°C° 0 mm 2 mps 757 mmHg 87%
    09:00 +14°C° 0 mm 3 mps 757 mmHg 81%
    10:00 +16°C° 0 mm 3 mps 757 mmHg 75%
    11:00 +17°C° 0 mm 3 mps 757 mmHg 72%
    12:00 +17°C° 0 mm 4 mps 756 mmHg 70%
    13:00 +18°C° 0 mm 4 mps 756 mmHg 67%
    14:00 +18°C° 0 mm 4 mps 756 mmHg 69%
    15:00 +17°C° 0 mm 3 mps 756 mmHg 70%
    16:00 +17°C° 0 mm 3 mps 756 mmHg 72%
    17:00 +16°C° 0 mm 3 mps 756 mmHg 75%
    18:00 +16°C° 0 mm 3 mps 756 mmHg 78%
    19:00 +14°C° 0 mm 3 mps 756 mmHg 81%
    20:00 +13°C° 0 mm 3 mps 756 mmHg 83%
    21:00 +14°C° 0 mm 2 mps 756 mmHg 85%
    22:00 +13°C° 0 mm 2 mps 756 mmHg 87%
    23:00 +13°C° 0 mm 2 mps 756 mmHg 88%

    19 October, Saturday

    Time Temperature Precipitation Wind Pressure Humidity
    00:00 +13°C° 0 mm 2 mps 756 mmHg 89%
    01:00 +12°C° 0 mm 2 mps 756 mmHg 91%
    02:00 +12°C° 0 mm 2 mps 755 mmHg 91%
    03:00 +13°C° 0 mm 1 mps 755 mmHg 90%
    04:00 +13°C° 0 mm 1 mps 755 mmHg 90%
    05:00 +13°C° 0 mm 1 mps 754 mmHg 88%
    06:00 +13°C° 0 mm 1 mps 754 mmHg 87%
    07:00 +13°C° 0 mm 1 mps 754 mmHg 85%
    08:00 +14°C° 0 mm 1 mps 754 mmHg 83%
    09:00 +14°C° 0 mm 1 mps 753 mmHg 80%
    10:00 +15°C° 0 mm 1 mps 753 mmHg 78%
    11:00 +16°C° 0 mm 1 mps 753 mmHg 74%
    12:00 +16°C° 0 mm 1 mps 753 mmHg 71%
    13:00 +17°C° 0 mm 2 mps 752 mmHg 67%
    14:00 +17°C° 0 mm 2 mps 752 mmHg 70%
    15:00 +16°C° 0 mm 1 mps 752 mmHg 72%
    16:00 +16°C° 0 mm 1 mps 752 mmHg 75%
    17:00 +15°C° 0 mm 1 mps 752 mmHg 77%
    18:00 +15°C° 0 mm 2 mps 752 mmHg 80%
    19:00 +14°C° 0 mm 2 mps 752 mmHg 82%
    20:00 +14°C° 0 mm 2 mps 752 mmHg 83%
    21:00 +14°C° 0 mm 2 mps 752 mmHg 83%
    22:00 +13°C° 0 mm 2 mps 752 mmHg 84%
    23:00 +13°C° 0 mm 2 mps 752 mmHg 83%

    20 October, Sunday

    Time Temperature Precipitation Wind Pressure Humidity
    00:00 +13°C° 0 mm 2 mps 752 mmHg 83%
    01:00 +13°C° 0 mm 2 mps 753 mmHg 83%
    02:00 +12°C° 0 mm 3 mps 753 mmHg 82%
    03:00 +12°C° 0 mm 3 mps 753 mmHg 80%
    04:00 +13°C° 0 mm 3 mps 753 mmHg 79%
    05:00 +12°C° 0 mm 3 mps 753 mmHg 80%
    06:00 +12°C° 0 mm 3 mps 754 mmHg 81%
    07:00 +13°C° 0 mm 2 mps 754 mmHg 82%
    08:00 +13°C° 0 mm 3 mps 755 mmHg 78%
    09:00 +13°C° 0 mm 3 mps 755 mmHg 74%
    10:00 +14°C° 0 mm 4 mps 755 mmHg 70%
    11:00 +14°C° 0 mm 4 mps 756 mmHg 66%
    12:00 +16°C° 0 mm 3 mps 756 mmHg 61%
    13:00 +17°C° 0 mm 3 mps 756 mmHg 57%
    14:00 +16°C° 0 mm 3 mps 756 mmHg 59%
    15:00 +16°C° 0 mm 2 mps 756 mmHg 61%
    16:00 +16°C° 0 mm 2 mps 756 mmHg 63%
    17:00 +15°C° 0 mm 2 mps 757 mmHg 66%
    18:00 +14°C° 0 mm 2 mps 757 mmHg 70%
    19:00 +13°C° 0 mm 1 mps 758 mmHg 73%
    20:00 +12°C° 0 mm 1 mps 758 mmHg 74%
    21:00 +12°C° 0 mm 1 mps 758 mmHg 74%
    22:00 +12°C° 0 mm 1 mps 759 mmHg 75%
    23:00 +12°C° 0 mm 1 mps 759 mmHg 76%
    Show more